| time (UTC) | temp F | wind direction | speed MPH | gust MPH | rain 1hr in | rain 24hr in | rain mn in | humidity % | barometer mb |
| 20260902234319 | 61 | 83 | 1.0 | 3.0 | 0.00 | 0.00 | 0.01 | 88 | 1015.0 |
| 20260902234302 | 62 | 0.0 | 0.0 | 0.00 | 0.00 | 0.01 | 88 | ||
| 20260902232835 | 62 | 84 | 1.0 | 1.0 | 0.00 | 0.00 | 0.01 | 88 | 1014.9 |
| 20260902232326 | 62 | 0.0 | 0.0 | 0.00 | 0.00 | 0.01 | 88 | ||
| 20260902231353 | 62 | 91 | 1.0 | 2.0 | 0.00 | 0.00 | 0.01 | 88 | 1014.9 |
| 20260902230831 | 63 | 0.0 | 0.0 | 0.00 | 0.00 | 0.01 | 87 | ||
| 20260902225806 | 63 | 72 | 1.0 | 3.0 | 0.00 | 0.00 | 0.01 | 87 | 1014.8 |
| 20260902225250 | 63 | 0.0 | 0.0 | 0.00 | 0.00 | 0.01 | 86 | ||
| 20260902224304 | 64 | 70 | 1.0 | 3.0 | 0.00 | 0.00 | 0.01 | 86 | 1014.7 |
| 20260902223748 | 64 | 0.0 | 0.0 | 0.00 | 0.00 | 0.01 | 85 | ||
| 20260902223258 | 64 | 75 | 1.0 | 3.0 | 0.00 | 0.00 | 0.01 | 85 | 1014.6 |
| 20260902222254 | 64 | 0.0 | 0.0 | 0.00 | 0.00 | 0.01 | 84 | ||
| 20260902221736 | 64 | 87 | 0.0 | 0.0 | 0.00 | 0.00 | 0.01 | 83 | 1014.6 |
| 20260902220732 | 65 | 0.0 | 0.0 | 0.00 | 0.00 | 0.01 | 81 | ||
| 20260902215748 | 65 | 83 | 0.0 | 0.0 | 0.00 | 0.00 | 0.01 | 81 | 1014.7 |
| 20260902214229 | 67 | 91 | 0.0 | 0.0 | 0.00 | 0.00 | 0.01 | 77 | 1014.7 |
| 20260902214002 | 69 | 0.0 | 0.0 | 0.00 | 0.00 | 0.01 | 74 | ||
| 20260902212814 | 70 | 76 | 0.0 | 0.0 | 0.00 | 0.00 | 0.01 | 73 | 1014.7 |
| 20260902212301 | 72 | 0.0 | 0.0 | 0.00 | 0.00 | 0.01 | 70 | ||
| 20260902211337 | 72 | 70 | 0.0 | 0.0 | 0.00 | 0.00 | 0.01 | 69 | 1014.9 |
| 20260902210820 | 73 | 0.0 | 0.0 | 0.00 | 0.00 | 0.01 | 65 | ||
| 20260902210026 | 73 | 70 | 0.0 | 0.0 | 0.00 | 0.00 | 0.01 | 65 | 1015.1 |
| 20260902205247 | 73 | 0.0 | 0.0 | 0.00 | 0.00 | 0.01 | 64 | ||
| 20260902204250 | 74 | 70 | 0.0 | 0.0 | 0.00 | 0.00 | 0.01 | 62 | 1015.0 |
| 20260902203754 | 74 | 0.0 | 0.0 | 0.00 | 0.00 | 0.01 | 61 | ||
| 20260902202820 | 74 | 8 | 0.0 | 0.0 | 0.00 | 0.00 | 0.01 | 60 | 1015.0 |
| 20260902202538 | 74 | 0.0 | 0.0 | 0.00 | 0.00 | 0.01 | 60 | ||
| 20260902201519 | 75 | 1 | 0.0 | 0.0 | 0.00 | 0.00 | 0.01 | 60 | 1015.1 |
| 20260902200746 | 75 | 0.0 | 0.0 | 0.00 | 0.00 | 0.01 | 59 | ||
| 20260902195822 | 75 | 251 | 0.0 | 0.0 | 0.00 | 0.00 | 0.01 | 59 | 1015.2 |
| 20260902195320 | 74 | 0.0 | 0.0 | 0.00 | 0.00 | 0.01 | 60 | ||
| 20260902194801 | 74 | 251 | 0.0 | 0.0 | 0.00 | 0.00 | 0.01 | 59 | 1015.7 |
| 20260902193752 | 74 | 0.0 | 0.0 | 0.00 | 0.00 | 0.01 | 59 | ||
| 20260902192820 | 74 | 264 | 0.0 | 1.0 | 0.00 | 0.00 | 0.01 | 59 | 1015.6 |
| 20260902192542 | 75 | 0.0 | 0.0 | 0.00 | 0.00 | 0.01 | 59 | ||
| 20260902191621 | 75 | 317 | 0.0 | 0.0 | 0.00 | 0.00 | 0.01 | 59 | 1015.6 |
| 20260902190832 | 75 | 0.0 | 0.0 | 0.00 | 0.00 | 0.01 | 59 | ||
| 20260902190044 | 75 | 264 | 0.0 | 0.0 | 0.00 | 0.00 | 0.01 | 60 | 1015.6 |
| 20260902185313 | 75 | 0.0 | 0.0 | 0.00 | 0.00 | 0.01 | 61 | ||
| 20260902184300 | 75 | 320 | 0.0 | 2.0 | 0.00 | 0.00 | 0.01 | 60 | 1015.7 |
| 20260902183800 | 74 | 243 | 0.0 | 1.0 | 0.00 | 0.00 | 0.01 | 61 | 1015.8 |
| 20260902182905 | 75 | 288 | 0.0 | 2.0 | 0.00 | 0.00 | 0.01 | 61 | 1015.8 |
| 20260902182403 | 74 | 0.0 | 0.0 | 0.00 | 0.00 | 0.01 | 63 | ||
| 20260902181505 | 75 | 239 | 0.0 | 2.0 | 0.00 | 0.00 | 0.01 | 62 | 1016.0 |
| 20260902175828 | 74 | 303 | 0.0 | 2.0 | 0.00 | 0.00 | 0.01 | 63 | 1016.1 |
| 20260902175558 | 74 | 0.0 | 0.0 | 0.00 | 0.00 | 0.01 | 64 | ||
| 20260902174538 | 73 | 266 | 0.0 | 2.0 | 0.00 | 0.00 | 0.01 | 64 | 1016.4 |
| 20260902173804 | 73 | 0.0 | 0.0 | 0.00 | 0.00 | 0.01 | 65 | ||
| 20260902172743 | 73 | 312 | 0.0 | 2.0 | 0.00 | 0.00 | 0.01 | 65 | 1016.8 |
| 20260902172514 | 73 | 0.0 | 0.0 | 0.00 | 0.00 | 0.01 | 66 | ||
| 20260902171020 | 73 | 20 | 0.0 | 1.0 | 0.00 | 0.00 | 0.01 | 67 | 1016.9 |
| 20260902170515 | 72 | 0.0 | 2.0 | 0.00 | 0.00 | 0.01 | 67 | ||
| 20260902165840 | 72 | 274 | 1.0 | 2.0 | 0.00 | 0.00 | 0.01 | 67 | 1017.0 |
| 20260902165338 | 70 | 0.0 | 0.0 | 0.00 | 0.00 | 0.01 | 70 | ||
| 20260902164241 | 70 | 49 | 0.0 | 2.0 | 0.00 | 0.00 | 0.01 | 70 | 1017.3 |
| 20260902163739 | 69 | 0.0 | 0.0 | 0.00 | 0.00 | 0.01 | 72 | ||
| 20260902162814 | 69 | 224 | 0.0 | 2.0 | 0.00 | 0.00 | 0.01 | 72 | 1017.7 |
| 20260902162312 | 69 | 0.0 | 0.0 | 0.00 | 0.00 | 0.01 | 71 | ||
| 20260902161253 | 69 | 213 | 0.0 | 1.0 | 0.00 | 0.00 | 0.01 | 71 | 1017.9 |
| 20260902160738 | 69 | 0.0 | 0.0 | 0.00 | 0.00 | 0.01 | 71 | ||
| 20260902155813 | 69 | 249 | 0.0 | 2.0 | 0.00 | 0.00 | 0.01 | 72 | 1018.1 |
| 20260902155314 | 69 | 0.0 | 0.0 | 0.00 | 0.00 | 0.01 | 72 | ||
| 20260902154251 | 69 | 346 | 0.0 | 2.0 | 0.00 | 0.00 | 0.01 | 71 | 1018.5 |
| 20260902153744 | 68 | 0.0 | 0.0 | 0.00 | 0.00 | 0.01 | 76 | ||
| 20260902152814 | 67 | 235 | 0.0 | 2.0 | 0.00 | 0.00 | 0.01 | 75 | 1018.8 |
| 20260902152308 | 65 | 0.0 | 0.0 | 0.00 | 0.00 | 0.01 | 79 | ||
| 20260902151340 | 65 | 239 | 0.0 | 0.0 | 0.00 | 0.00 | 0.01 | 78 | 1018.9 |
| 20260902150817 | 66 | 0.0 | 0.0 | 0.00 | 0.00 | 0.01 | 77 | ||
| 20260902145755 | 66 | 318 | 1.0 | 3.0 | 0.00 | 0.00 | 0.01 | 77 | 1019.0 |
| 20260902145254 | 65 | 0.0 | 0.0 | 0.00 | 0.00 | 0.01 | 77 | ||
| 20260902144239 | 66 | 229 | 0.0 | 4.0 | 0.00 | 0.00 | 0.01 | 77 | 1019.2 |
| 20260902143735 | 65 | 284 | 0.0 | 0.0 | 0.00 | 0.00 | 0.01 | 79 | 1019.2 |
| 20260902142822 | 65 | 281 | 0.0 | 2.0 | 0.00 | 0.00 | 0.01 | 79 | 1019.3 |
| 20260902142309 | 63 | 0.0 | 0.0 | 0.00 | 0.00 | 0.01 | 81 | ||
| 20260902141339 | 63 | 216 | 0.0 | 3.0 | 0.00 | 0.00 | 0.01 | 81 | 1019.4 |
| 20260902140826 | 63 | 254 | 1.0 | 3.0 | 0.00 | 0.00 | 0.01 | 81 | 1019.5 |
| 20260902140317 | 62 | 249 | 1.0 | 4.0 | 0.00 | 0.00 | 0.01 | 81 | 1019.5 |
| 20260902135804 | 62 | 219 | 1.0 | 4.0 | 0.00 | 0.00 | 0.01 | 81 | 1019.6 |
| 20260902135251 | 63 | 0.0 | 0.0 | 0.00 | 0.00 | 0.01 | 81 | ||
| 20260902134326 | 63 | 242 | 0.0 | 2.0 | 0.00 | 0.00 | 0.01 | 81 | 1019.6 |
| 20260902133819 | 62 | 257 | 0.0 | 0.0 | 0.00 | 0.00 | 0.01 | 82 | 1019.7 |
| 20260902132807 | 62 | 260 | 0.0 | 3.0 | 0.00 | 0.00 | 0.01 | 82 | 1019.6 |
| 20260902132759 | 62 | 243 | 1.0 | 3.0 | 0.00 | 0.00 | 0.01 | 82 | 1019.6 |
| 20260902131736 | 62 | 272 | 1.0 | 3.0 | 0.00 | 0.00 | 0.01 | 82 | 1019.8 |
| 20260902131500 | 62 | 288 | 0.0 | 3.0 | 0.00 | 0.00 | 0.01 | 83 | 1019.8 |
| 20260902130730 | 61 | 0.0 | 0.0 | 0.00 | 0.00 | 0.01 | 84 | ||
| 20260902125819 | 61 | 276 | 1.0 | 3.0 | 0.00 | 0.00 | 0.01 | 84 | 1020.0 |
| 20260902125549 | 61 | 0.0 | 0.0 | 0.00 | 0.00 | 0.01 | 85 | ||
| 20260902124033 | 61 | 310 | 0.0 | 3.0 | 0.00 | 0.00 | 0.01 | 86 | 1019.9 |
| 20260902123523 | 60 | 243 | 0.0 | 2.0 | 0.00 | 0.00 | 0.01 | 87 | |
| 20260902123017 | 60 | 254 | 0.0 | 2.0 | 0.00 | 0.00 | 0.01 | 87 | 1020.0 |
| 20260902122237 | 60 | 235 | 0.0 | 2.0 | 0.00 | 0.00 | 0.01 | 89 | 1020.3 |
| 20260902121324 | 59 | 111 | 0.0 | 0.0 | 0.00 | 0.00 | 0.01 | 90 | 1020.0 |
| 20260902120801 | 58 | 0.0 | 0.0 | 0.00 | 0.00 | 0.01 | 91 | ||
| 20260902115837 | 58 | 87 | 0.0 | 1.0 | 0.00 | 0.00 | 0.01 | 91 | 1019.7 |
| 20260902115336 | 57 | 0.0 | 0.0 | 0.00 | 0.00 | 0.01 | 91 | ||
| 20260902114317 | 56 | 87 | 0.0 | 2.0 | 0.00 | 0.00 | 0.01 | 92 | 1019.6 |
| 20260902113815 | 56 | 0.0 | 0.0 | 0.00 | 0.00 | 0.01 | 92 | ||
| 20260902112759 | 55 | 87 | 1.0 | 2.0 | 0.00 | 0.00 | 0.01 | 92 | 1019.6 |
| 20260902112257 | 55 | 0.0 | 0.0 | 0.00 | 0.00 | 0.01 | 93 | ||
| 20260902111337 | 55 | 117 | 1.0 | 3.0 | 0.00 | 0.00 | 0.01 | 93 | 1019.6 |
| 20260902110828 | 54 | 0.0 | 0.0 | 0.00 | 0.00 | 0.01 | 93 | ||
| 20260902105808 | 54 | 79 | 0.0 | 3.0 | 0.00 | 0.00 | 0.01 | 93 | 1019.5 |
| 20260902105539 | 54 | 0.0 | 0.0 | 0.00 | 0.00 | 0.01 | 93 | ||
| 20260902104244 | 53 | 87 | 0.0 | 3.0 | 0.00 | 0.00 | 0.01 | 93 | 1019.3 |
| 20260902103741 | 53 | 0.0 | 0.0 | 0.00 | 0.00 | 0.01 | 93 | ||
| 20260902102818 | 53 | 89 | 0.0 | 0.0 | 0.00 | 0.00 | 0.01 | 93 | 1019.2 |
| 20260902102308 | 51 | 0.0 | 0.0 | 0.00 | 0.00 | 0.01 | 93 | ||
| 20260902101252 | 51 | 87 | 0.0 | 0.0 | 0.00 | 0.00 | 0.01 | 92 | 1019.1 |
| 20260902100748 | 51 | 0.0 | 0.0 | 0.00 | 0.00 | 0.01 | 92 | ||
| 20260902095724 | 51 | 87 | 0.0 | 0.0 | 0.00 | 0.00 | 0.01 | 92 | 1019.0 |
| 20260902095224 | 52 | 87 | 0.0 | 0.0 | 0.00 | 0.00 | 0.01 | 92 | 1018.9 |
| 20260902094330 | 52 | 0.0 | 0.0 | 0.00 | 0.00 | 0.01 | 92 | ||
| 20260902094323 | 52 | 87 | 0.0 | 0.0 | 0.00 | 0.00 | 0.01 | 92 | 1018.7 |
| 20260902092752 | 52 | 87 | 0.0 | 0.0 | 0.00 | 0.00 | 0.01 | 92 | 1018.5 |
| 20260902092524 | 53 | 0.0 | 0.0 | 0.00 | 0.00 | 0.01 | 92 | ||
| 20260902091302 | 53 | 87 | 0.0 | 0.0 | 0.00 | 0.00 | 0.01 | 92 | 1018.1 |
| 20260902090530 | 53 | 0.0 | 0.0 | 0.00 | 0.00 | 0.01 | 92 | ||
| 20260902085845 | 53 | 87 | 0.0 | 0.0 | 0.00 | 0.00 | 0.01 | 92 | 1017.8 |
| 20260902085610 | 53 | 0.0 | 0.0 | 0.00 | 0.00 | 0.01 | 92 | ||
| 20260902084341 | 53 | 103 | 0.0 | 0.0 | 0.01 | 0.01 | 0.01 | 92 | 1017.6 |
| 20260902083841 | 54 | 0.0 | 0.0 | 0.00 | 0.00 | 0.00 | 92 | ||
| 20260902082751 | 54 | 103 | 0.0 | 0.0 | 0.00 | 0.00 | 0.00 | 92 | 1017.5 |
| 20260902082515 | 54 | 0.0 | 0.0 | 0.00 | 0.00 | 0.00 | 92 | ||
| 20260902081320 | 54 | 104 | 0.0 | 0.0 | 0.00 | 0.00 | 0.00 | 92 | 1017.5 |
| 20260902080817 | 54 | 0.0 | 0.0 | 0.00 | 0.00 | 0.00 | 92 | ||
| 20260902075752 | 53 | 105 | 0.0 | 0.0 | 0.00 | 0.00 | 0.00 | 92 | 1017.5 |
| 20260902075248 | 54 | 0.0 | 0.0 | 0.00 | 0.00 | 0.00 | 91 | ||
| 20260902074328 | 54 | 104 | 0.0 | 0.0 | 0.00 | 0.00 | 0.00 | 91 | 1017.4 |
| 20260902073824 | 54 | 0.0 | 0.0 | 0.00 | 0.00 | 0.00 | 91 | ||
| 20260902072757 | 54 | 0.0 | 0.0 | 0.00 | 0.00 | 0.00 | 91 | ||
| 20260902072750 | 54 | 105 | 0.0 | 0.0 | 0.00 | 0.00 | 0.00 | 91 | 1017.5 |
| 20260902071324 | 54 | 122 | 0.0 | 0.0 | 0.00 | 0.00 | 0.00 | 91 | 1017.6 |
| 20260902071047 | 55 | 0.0 | 0.0 | 0.00 | 0.00 | 0.00 | 90 | ||
| 20260902070121 | 55 | 125 | 0.0 | 0.0 | 0.00 | 0.00 | 0.00 | 90 | 1017.7 |
| 20260902065342 | 56 | 0.0 | 0.0 | 0.00 | 0.00 | 0.00 | 90 | ||
| 20260902064306 | 56 | 125 | 0.0 | 0.0 | 0.00 | 0.00 | 0.00 | 90 | 1017.6 |
| 20260902063748 | 56 | 0.0 | 0.0 | 0.00 | 0.00 | 0.00 | 90 | ||
| 20260902062717 | 56 | 125 | 0.0 | 0.0 | 0.00 | 0.00 | 0.00 | 90 | 1017.7 |
| 20260902062217 | 57 | 125 | 0.0 | 0.0 | 0.00 | 0.00 | 0.00 | 90 | 1017.7 |
| 20260902061318 | 57 | 125 | 0.0 | 0.0 | 0.00 | 0.00 | 0.00 | 90 | 1017.8 |
| 20260902060803 | 57 | 0.0 | 0.0 | 0.00 | 0.00 | 0.00 | 90 | ||
| 20260902055838 | 57 | 125 | 0.0 | 0.0 | 0.00 | 0.00 | 0.00 | 90 | 1017.8 |
| 20260902055326 | 57 | 0.0 | 0.0 | 0.00 | 0.00 | 0.00 | 90 | ||
| 20260902054301 | 57 | 125 | 0.0 | 0.0 | 0.00 | 0.00 | 0.00 | 89 | 1017.8 |
| 20260902053752 | 58 | 0.0 | 0.0 | 0.00 | 0.00 | 0.00 | 89 | ||
| 20260902052828 | 58 | 125 | 0.0 | 0.0 | 0.00 | 0.00 | 0.00 | 89 | 1018.1 |
| 20260902052306 | 58 | 0.0 | 0.0 | 0.00 | 0.00 | 0.00 | 89 | ||
| 20260902051034 | 58 | 125 | 0.0 | 0.0 | 0.00 | 0.00 | 0.00 | 89 | 1018.2 |
| 20260902050519 | 58 | 0.0 | 0.0 | 0.00 | 0.00 | 0.00 | 89 | ||
| 20260902045931 | 58 | 125 | 0.0 | 0.0 | 0.00 | 0.00 | 0.00 | 89 | 1018.3 |
| 20260902044357 | 58 | 125 | 0.0 | 0.0 | 0.00 | 0.00 | 0.00 | 88 | 1018.4 |
| 20260902043852 | 58 | 0.0 | 0.0 | 0.00 | 0.00 | 0.00 | 88 | ||
| 20260902042525 | 58 | 0.0 | 0.0 | 0.00 | 0.00 | 0.00 | 87 | ||
| 20260902041759 | 59 | 125 | 0.0 | 0.0 | 0.00 | 0.00 | 0.00 | 87 | 1018.3 |
| 20260902040748 | 59 | 0.0 | 0.0 | 0.00 | 0.00 | 0.00 | 87 | ||
| 20260902035814 | 59 | 125 | 0.0 | 0.0 | 0.00 | 0.00 | 0.00 | 87 | 1018.3 |
| 20260902035307 | 59 | 0.0 | 0.0 | 0.00 | 0.00 | 0.00 | 87 | ||
| 20260902033736 | 60 | 125 | 0.0 | 0.0 | 0.00 | 0.00 | 0.00 | 87 | 1018.4 |
| 20260902032824 | 60 | 125 | 0.0 | 0.0 | 0.00 | 0.00 | 0.00 | 87 | 1018.3 |
| 20260902032318 | 60 | 0.0 | 0.0 | 0.00 | 0.00 | 0.00 | 87 | ||
| 20260902031253 | 60 | 125 | 0.0 | 0.0 | 0.00 | 0.00 | 0.00 | 87 | 1018.4 |
| 20260902030803 | 60 | 0.0 | 0.0 | 0.00 | 0.00 | 0.00 | 88 | ||
| 20260902030000 | 60 | 135 | 0.0 | 0.0 | 0.00 | 0.00 | 0.07 | 89 | 1018.6 |
| 20260902025230 | 60 | 120 | 0.0 | 0.0 | 0.00 | 0.00 | 0.07 | 89 | 1018.6 |
| 20260902024323 | 60 | 120 | 0.0 | 0.0 | 0.00 | 0.00 | 0.07 | 89 | 1018.5 |
| 20260902023812 | 60 | 0.0 | 0.0 | 0.00 | 0.00 | 0.07 | 90 | ||
| 20260902022847 | 60 | 120 | 0.0 | 0.0 | 0.00 | 0.00 | 0.07 | 90 | 1018.6 |
| 20260902022330 | 60 | 0.0 | 0.0 | 0.00 | 0.00 | 0.07 | 90 | ||
| 20260902021305 | 60 | 120 | 0.0 | 0.0 | 0.00 | 0.00 | 0.07 | 90 | 1018.6 |
| 20260902020751 | 60 | 0.0 | 0.0 | 0.00 | 0.00 | 0.07 | 90 | ||
| 20260902015836 | 60 | 120 | 0.0 | 0.0 | 0.00 | 0.00 | 0.07 | 90 | 1018.3 |
| 20260902015326 | 60 | 0.0 | 0.0 | 0.00 | 0.00 | 0.07 | 90 | ||
| 20260902014259 | 60 | 154 | 0.0 | 0.0 | 0.00 | 0.00 | 0.07 | 90 | 1018.3 |
| 20260902013749 | 60 | 0.0 | 0.0 | 0.00 | 0.00 | 0.07 | 91 | ||
| 20260902012309 | 60 | 0.0 | 0.0 | 0.00 | 0.00 | 0.07 | 91 | ||
| 20260902011338 | 60 | 119 | 0.0 | 0.0 | 0.00 | 0.00 | 0.07 | 91 | 1018.1 |
| 20260902011330 | 60 | 0.0 | 0.0 | 0.00 | 0.00 | 0.07 | 90 | ||
| 20260902005801 | 60 | 119 | 0.0 | 0.0 | 0.00 | 0.00 | 0.07 | 90 | 1017.8 |
| 20260902005513 | 60 | 119 | 0.0 | 0.0 | 0.00 | 0.00 | 0.07 | 90 | 1017.7 |
| 20260902004352 | 60 | 119 | 0.0 | 0.0 | 0.00 | 0.00 | 0.07 | 90 | 1017.6 |
| 20260902003850 | 61 | 119 | 0.0 | 0.0 | 0.00 | 0.00 | 0.07 | 90 | 1017.5 |
| 20260902002926 | 61 | 119 | 0.0 | 0.0 | 0.00 | 0.00 | 0.07 | 90 | 1017.4 |
| 20260902002427 | 61 | 0.0 | 0.0 | 0.00 | 0.00 | 0.07 | 90 | ||
| 20260902001614 | 61 | 119 | 0.0 | 0.0 | 0.00 | 0.00 | 0.07 | 90 | 1017.2 |
| 20260902000840 | 62 | 0.0 | 0.0 | 0.00 | 0.00 | 0.07 | 89 | ||
| 20260901235811 | 62 | 0.0 | 0.0 | 0.00 | 0.00 | 0.07 | 89 | ||
| 20260901235804 | 62 | 119 | 0.0 | 0.0 | 0.00 | 0.00 | 0.07 | 89 | 1017.1 |